Regional Weather Roundup
Issued by NWS Sterling, VA

Home | Current Version | Previous Version | Graphics & Text | Print | Product List | Glossary On
Versions: 1 2 3 4 5 6 7 8 9 10 11 12 13 14 15 16 17 18 19 20 21 22 23 24 25 26 27 28 29 30 31 32 33 34 35 36 37 38 39 40 41 42 43 44 45 46 47 48 49
079
ASUS41 KLWX 082310
RWRLWX

REGIONAL WEATHER ROUNDUP
NATIONAL WEATHER SERVICE BALTIMORE MD/WASHINGTON DC
600 PM EST MON FEB 08 2016

Note: "FAIR" indicates few or no clouds below 12,000 feet
with no significant weather and/or obstructions to visibility.
 TC=TEMPERATURE CELSIUS

 * =Non NWS site. Station does not report precipitation (e.g. rain,
    snow, etc.), thunder, or fog.

DCZ001-MDZ009-015-VAZ040>042-051-053>054-090000-
WASHINGTON METRO

CITY           SKY/WX    TMP DP  RH WIND       PRES   REMARKS
WASHINGTON NAT CLOUDY    43  31  62 E12       29.70S
DULLES         CLOUDY    42  25  50 S6        29.67R
ANDREWS AFB    CLOUDY    41  30  65 SE8       29.68S
FT BELVOIR     FAIR      43  28  54 SE7       29.69R
QUANTICO       CLOUDY    43  33  68 S10       29.72R
COLLEGE PARK*  CLOUDY    43  30  61 E7        29.69S
LEESBURG*      CLOUDY    45  32  61 S5        29.68R
MANASSAS*      CLOUDY    43  30  61 MISG      29.68R
GAITHERSBURG*  CLOUDY    41  25  52 SE13      29.70S

$$

MDZ006>007-011-014-090000-
BALTIMORE METRO

CITY           SKY/WX    TMP DP  RH WIND       PRES   REMARKS
BWI AIRPORT    CLOUDY    41  29  62 SE8       29.70S
MD SCIENCE CTR   N/A     42  29  59 MISG      29.71R
MARTIN STATE   PTCLDY    43  34  70 MISG      29.74R
ANNAPOLIS      CLOUDY    39  35  86 SE5       29.72R
FORT MEADE*    CLOUDY    41  30  65 SE8       29.72S

$$

MDZ012-015-019>023-090000-
MARYLAND EASTERN SHORE

CITY           SKY/WX    TMP DP  RH WIND       PRES   REMARKS
OCEAN CITY     CLOUDY    38  32  79 E9        29.76R
SALISBURY      CLOUDY    39  33  79 E15       29.73F
BAY BRIDGE AP*   N/A     41  30  65 CALM      29.73R
CAMBRIDGE*     MOCLDY    39  34  81 S3        29.73R
EASTON*        CLOUDY    41  32  70 SE6       29.76R

$$

MDZ017>025-090000-
SOUTHERN MARYLAND

CITY           SKY/WX    TMP DP  RH WIND       PRES   REMARKS
PATUXENT RIVER CLOUDY    40  32  73 SE9       29.72R
ST INIGOES     CLOUDY    41  32  70 SE8       29.72R
LEONARDTOWN*   CLOUDY    41  30  65 SE5       29.73S

$$

MDZ003>005-090000-
NORTH CENTRAL MARYLAND

CITY           SKY/WX    TMP DP  RH WIND       PRES   REMARKS
FREDERICK*     NOT AVBL
HAGERSTOWN APT CLOUDY    41  25  53 E3        29.64S
WESTMINSTER*   CLOUDY    41  36  81 SE5       29.66S

$$

MDZ501>502-090000-
WESTERN MARYLAND

CITY           SKY/WX    TMP DP  RH WIND       PRES   REMARKS
OAKLAND*       CLOUDY    30  30 100 S5        29.54F
CUMBERLAND*    PTCLDY    43  25  49 E3        29.66R

$$

VAZ025>031-090000-
SHENANDOAH VALLEY

CITY           SKY/WX    TMP DP  RH WIND       PRES   REMARKS
WINCHESTER*    CLOUDY    41  27  56 SE5       29.63R
FRONT ROYAL*   CLOUDY    43  23  45 S6        29.62R
LURAY*         CLOUDY    43  28  56 S12       29.64R
NEW MARKET*    CLOUDY    40  31  72 S12G22    29.63R
STAUNTON*      CLOUDY    44  32  63 S8        29.66R
WAYNESBORO*    CLOUDY    38  31  77 S6        29.63S

$$

WVZ021-048>050-054>055-090000-
EASTERN WEST VIRGINIA PANHANDLE

CITY           SKY/WX    TMP DP  RH WIND       PRES   REMARKS
MARTINSBURG    CLOUDY    41  23  48 CALM      29.64S
PETERSBURG*    CLOUDY    43  30  60 CALM      29.62S

$$

VAZ036>039-050-090000-
CENTRAL FOOTHILLS

CITY           SKY/WX    TMP DP  RH WIND       PRES   REMARKS
CHARLOTTESVILL CLOUDY    44  27  51 SW5       29.66R
CULPEPER*      CLOUDY    43  25  49 CALM      29.68R
ORANGE*        CLOUDY    45  25  45 E5        29.69R
GORDONSVILLE*  CLOUDY    45  26  47 S8        29.67R
WARRENTON*     CLOUDY    44  32  63 SE8       29.67R

$$

VAZ055>057-090000-
NORTH AND CENTRAL PIEDMONT

CITY           SKY/WX    TMP DP  RH WIND       PRES   REMARKS
FREDERICKSBRG* MOCLDY    44  31  61 E5        29.69R
STAFFORD*      CLOUDY    42  30  62 E5        29.74R

$$

NCZ024-NYZ072-PAZ021-071-VAZ022-071-090000-
OTHER REGIONAL OBSERVATIONS

CITY           SKY/WX    TMP DP  RH WIND       PRES   REMARKS
NEW YORK CITY  CLOUDY    32  21  64 VRB7      29.78R
PHILADELPHIA   CLOUDY    39  25  57 E10       29.75R
PITTSBURGH     CLOUDY    34  31  88 SW9       29.58R WCI  27
ROANOKE        CLOUDY    37  34  89 CALM      29.65F
RICHMOND       CLOUDY    43  31  62 SE8       29.70R
RALEIGH        LGT RAIN  43  38  82 W7        29.71R

$$

ANZ530>537-090000-
MARINE OBSERVATIONS

STATION/POSITION TIME  TEMP    WIND        PRES
                       AIR SEA DIR/SP/G
                 (UTC) (F)     (DEG/KT/KT) (MB)
THOMAS PT LIGHT  2300          120/  6       N/A
BALT KEY BRIDGE  2200   41      90/  8/  9 1005.9R
COVE POINT       2200   39     180/ 10/ 11 1006.8F
LEWISETTA        2200   41 41  160/ 10/ 12 1005.9F
SOLOMONS ISLAND  2200   41 42  150/ 10/ 12   N/A
PINEY POINT      2200          160/ 13/ 14   N/A

$$





USA.gov is the U.S. government's official web portal to all federal, state and local government web resources and services.